Location: Unnamed
(47.9062°N, 20.3783°E)
Time: 03:48:11
(UTC+01:00)

ISS - Visible Passes

Search period start: 01 December 2023 00:00
Search period end: 11 December 2023 00:00
Orbit: 416 x 417 km, 51.6° (Epoch: 30 November)

Date Brightness Start Highest point End Pass type
(mag) Time Alt. Az. Time Alt. Az. Time Alt. Az.
01 Dec -3.6 16:42:17 10° WNW 16:45:35 55° NNE 16:48:35 12° E visible
01 Dec -2.1 18:19:07 10° WNW 18:21:31 34° WSW 18:21:31 34° WSW visible
02 Dec -3.4 17:30:36 10° WNW 17:33:56 61° SSW 17:35:27 29° SE visible
03 Dec -3.8 16:42:06 10° WNW 16:45:28 88° SSW 16:48:49 10° ESE visible
03 Dec -1.3 18:19:26 10° W 18:21:50 18° SW 18:22:29 17° SSW visible
04 Dec -1.8 17:30:33 10° W 17:33:29 28° SW 17:36:23 10° SSE visible
05 Dec -2.5 16:41:49 10° WNW 16:45:01 43° SSW 16:48:12 10° SE visible
06 Dec -0.5 17:31:08 10° WSW 17:32:39 13° SW 17:34:10 10° SSW visible
07 Dec -0.8 16:41:41 10° W 16:44:12 20° SW 16:46:41 10° S visible
